This demonstration page uses our WeatherBlox Daily Observations layout. Learn more.

Left ArrowRight Arrow

38.20091, -84.87328

Hourly Observations for February 16, 2020

Temp ( °F °C ) Dew Point ( °F °C ) Humidity (%) Winds ( mph kmh ) Pressure ( in mb ) Visibility ( mi km ) Precip ( " mm )
12:53 am 00:53 Cloudy 41 5 25 -3.9 53 53 SSW 6 9 30.17 1022 10 16 0.00 0.00
1:53 am 01:53 Cloudy 42 5.6 25 -3.9 51 51 SSW 6 9 30.16 1021 10 16 0.00 0.00
2:53 am 02:53 Mostly Cloudy 41 5 26 -3.3 55 55 SSW 3 6 30.15 1021 10 16 0.00 0.00
3:53 am 03:53 Mostly Cloudy 42 5.6 26 -3.3 53 53 S 6 9 30.13 1020 10 16 0.00 0.00
4:53 am 04:53 Mostly Cloudy 39 3.9 26 -3.3 60 60 S 3 6 30.12 1020 10 16 0.00 0.00
5:53 am 05:53 Cloudy 36 2.2 27 -2.8 70 70 Calm 30.12 1020 10 16 0.00 0.00
6:53 am 06:53 Cloudy 34 1.1 27 -2.8 76 76 NNW 3 6 30.12 1020 10 16 0.00 0.00
7:53 am 07:53 Cloudy 34 1.1 28 -2.2 79 79 Calm 30.13 1020 10 16 0.00 0.00
8:53 am 08:53 Cloudy 39 3.9 30 -1.1 70 70 Calm 30.14 1021 10 16 0.00 0.00
9:53 am 09:53 Cloudy 41 5 32 0 70 70 NNW 3 6 30.13 1020 10 16 0.00 0.00
10:53 am 10:53 Cloudy 45 7.2 33 0.6 63 63 SE 7 11 30.11 1020 10 16 0.00 0.00
11:53 am 11:53 Cloudy 47 8.3 30 -1.1 52 52 SSW 6 9 30.11 1020 10 16 0.00 0.00
12:53 pm 12:53 Cloudy 48 8.9 30 -1.1 50 50 W 6 9 30.09 1019 10 16 0.00 0.00
1:53 pm 13:53 Cloudy 51 10.6 31 -0.6 46 46 WSW 8 13 30.07 1018 10 16 0.00 0.00
2:53 pm 14:53 Cloudy 52 11.1 30 -1.1 43 43 SW 5 7 30.05 1018 10 16 0.00 0.00
3:53 pm 15:53 Cloudy 52 11.1 31 -0.6 45 45 SSW 3 6 30.06 1018 10 16 0.00 0.00
4:53 pm 16:53 Cloudy 51 10.6 32 0 48 48 NNW 5 7 30.07 1018 10 16 0.00 0.00
5:53 pm 17:53 Cloudy 50 10 31 -0.6 48 48 N 3 6 30.09 1019 10 16 0.00 0.00
6:53 pm 18:53 Clear 47 8.3 31 -0.6 54 54 NNE 5 7 30.10 1019 10 16 0.00 0.00
7:53 pm 19:53 Clear 38 3.3 30 -1.1 73 73 Calm 30.11 1020 10 16 0.00 0.00
8:53 pm 20:53 Mostly Cloudy 38 3.3 31 -0.6 76 76 Calm 30.11 1020 10 16 0.00 0.00
9:53 pm 21:53 Clear 33 0.6 29 -1.7 85 85 Calm 30.13 1020 10 16 0.00 0.00
10:53 pm 22:53 Clear 32 0 27 -2.8 82 82 Calm 30.12 1020 10 16 0.00 0.00
11:53 pm 23:53 Clear 32 0 27 -2.8 82 82 Calm 30.11 1020 10 16 0.00 0.00

Powered by AerisWeather